Date String (YYYY-MM-DD hh:mm:ss) UTC,Instrument flags,absolute air pressure of the measurement (hPa),sample flow rate (lpm),inlet stack bypass flow (lpm),air temperature of the measurement (°C),ambient temperature measured by the external sensor (°C),aerosol sample conditioner tube jacket temperature (°C),OPC LED temperature (°C),internal box temperature (°C),relative humidity of the measurement (%),span deviation,mass concentration of particles derived from Lorenz-Mie calculation of OPC scattering (μg/m³),mass concentration of particles derived from Lorenz-Mie calculation of OPC scattering (μg/m³),mass concentration of particles derived from Lorenz-Mie calculation of OPC scattering (μg/m³)
DateTimeUTC,F1_M11,P_M11,Q1_M11,Q2_M11,T1_M11,T2_M11,T3_M11,T4_M11,T5_M11,U1_M11,ZSPAN_M11,X0_M11,X2_M11,X1_M11
2023-07-16 06:00:00,SystemResetWarning,0834.1,5.00,000.00,029.4,026.0,000.0,037.6,030.8,29.4,-000.3,0014.57,0007.81,0006.80
2023-07-16 06:01:00,SystemResetWarning,0834.1,5.01,000.00,029.3,025.3,000.0,037.5,030.6,29.5,-000.4,0014.43,0007.80,0006.77
2023-07-16 06:02:00,SystemResetWarning,0834.1,5.01,000.00,029.2,025.4,000.0,037.6,030.4,29.7,-000.3,0014.11,0007.82,0006.75
2023-07-16 06:03:00,SystemResetWarning,0834.2,4.99,000.00,029.1,025.8,000.0,037.6,030.4,29.8,0000.0,0014.18,0007.81,0006.73
2023-07-16 06:04:00,SystemResetWarning,0834.1,4.99,000.00,029.1,026.2,000.0,037.6,030.5,29.5,0000.1,0014.10,0007.80,0006.70
2023-07-16 06:05:00,SystemResetWarning,0834.1,5.01,000.00,029.1,026.5,000.0,037.6,030.6,29.4,0000.1,0014.44,0007.75,0006.69
2023-07-16 06:06:00,SystemResetWarning,0834.1,5.01,000.00,029.1,026.9,000.0,037.6,030.6,29.5,0000.5,0014.56,0007.68,0006.67
2023-07-16 06:07:00,SystemResetWarning,0834.1,5.01,000.00,029.1,027.1,000.0,037.6,030.7,29.3,0000.6,0014.36,0007.68,0006.66
2023-07-16 06:08:00,SystemResetWarning,0834.1,5.00,000.00,029.2,027.4,000.0,037.6,030.7,29.1,0000.8,0013.77,0007.61,0006.65
2023-07-16 06:09:00,SystemResetWarning,0834.1,4.99,000.00,029.2,027.6,000.0,037.7,030.8,29.0,0000.7,0014.33,0007.63,0006.65
2023-07-16 06:10:00,SystemResetWarning,0834.1,5.00,000.00,029.2,027.7,000.0,037.7,030.8,29.0,0000.6,0015.07,0007.64,0006.64
2023-07-16 06:11:00,SystemResetWarning,0834.1,5.00,000.00,029.3,027.9,000.0,037.7,030.9,29.1,0000.7,0015.36,0007.62,0006.64
2023-07-16 06:12:00,SystemResetWarning,0834.1,5.00,000.00,029.3,028.0,000.0,037.7,030.9,28.7,0000.8,0015.10,0007.61,0006.64
2023-07-16 06:13:00,SystemResetWarning,0834.1,5.00,000.00,029.3,028.1,000.0,037.7,031.0,28.6,0000.8,0015.49,0007.61,0006.64
2023-07-16 06:14:00,SystemResetWarning,0834.1,5.00,000.00,029.4,028.2,000.0,037.7,031.0,28.5,0000.9,0016.59,0007.60,0006.63
2023-07-16 06:15:00,SystemResetWarning,0834.1,5.01,000.00,029.4,028.2,000.0,037.8,031.0,28.2,0001.0,0017.42,0007.64,0006.63
2023-07-16 06:16:00,SystemResetWarning,0834.1,5.01,000.00,029.4,028.3,000.0,037.8,031.1,27.7,0001.0,0016.99,0007.67,0006.63
2023-07-16 06:17:00,SystemResetWarning,0834.1,5.00,000.00,029.4,028.4,000.0,037.8,031.1,27.3,0000.5,0016.62,0007.65,0006.62
2023-07-16 06:18:00,SystemResetWarning,0834.1,5.00,000.00,029.5,028.4,000.0,037.8,031.2,26.9,0000.2,0017.19,0007.59,0006.60
2023-07-16 06:19:00,SystemResetWarning,0834.0,4.98,000.00,029.5,027.3,000.0,037.8,031.1,26.4,0000.0,0017.23,0007.58,0006.59
2023-07-16 06:20:00,SystemResetWarning,0834.0,5.01,000.00,029.4,025.6,000.0,037.7,030.8,26.2,0000.0,0016.58,0007.53,0006.58
2023-07-16 06:21:00,SystemResetWarning,0833.9,5.01,000.00,029.3,025.2,000.0,037.6,030.6,26.0,0000.0,0016.01,0007.48,0006.56
2023-07-16 06:22:00,SystemResetWarning,0834.0,5.00,000.00,029.2,025.4,000.0,037.6,030.4,26.2,0000.0,0015.61,0007.45,0006.52
2023-07-16 06:23:00,SystemResetWarning,0834.0,5.00,000.00,029.2,025.8,000.0,037.7,030.4,26.5,0000.0,0015.81,0007.39,0006.49
2023-07-16 06:24:00,SystemResetWarning,0834.0,5.00,000.00,029.2,026.2,000.0,037.7,030.5,26.5,0000.0,0015.44,0007.32,0006.47
2023-07-16 06:25:00,SystemResetWarning,0833.9,5.00,000.00,029.2,026.6,000.0,037.7,030.6,26.5,0000.2,0015.34,0007.27,0006.44
2023-07-16 06:26:00,SystemResetWarning,0833.9,5.00,000.00,029.2,026.9,000.0,037.7,030.7,26.5,0000.8,0014.72,0007.21,0006.41
2023-07-16 06:27:00,SystemResetWarning,0833.9,5.00,000.00,029.2,027.2,000.0,037.7,030.7,26.6,0000.5,0014.68,0007.14,0006.36
2023-07-16 06:28:00,SystemResetWarning,0833.9,5.00,000.00,029.2,027.4,000.0,037.7,030.8,26.6,0000.7,0015.20,0007.08,0006.31
2023-07-16 06:29:00,SystemResetWarning,0833.9,5.00,000.00,029.2,027.6,000.0,037.7,030.8,26.7,0000.4,0014.65,0007.05,0006.28
2023-07-16 06:30:00,SystemResetWarning,0834.0,5.00,000.00,029.3,027.8,000.0,037.7,030.9,26.9,0000.1,0014.73,0007.01,0006.23
2023-07-16 06:31:00,SystemResetWarning,0834.0,5.00,000.00,029.3,027.9,000.0,037.7,030.9,27.0,0000.0,0015.05,0006.96,0006.17
2023-07-16 06:32:00,SystemResetWarning,0834.0,5.00,000.00,029.3,028.0,000.0,037.8,031.0,27.5,-000.3,0014.73,0006.91,0006.12
2023-07-16 06:33:00,SystemResetWarning,0834.0,5.00,000.00,029.4,028.1,000.0,037.8,031.0,27.5,-000.5,0014.66,0006.88,0006.07
2023-07-16 06:34:00,SystemResetWarning,0834.0,5.00,000.00,029.4,028.2,000.0,037.8,031.1,27.6,-000.4,0014.08,0006.84,0006.03
2023-07-16 06:35:00,SystemResetWarning,0834.0,5.00,000.00,029.4,028.3,000.0,037.8,031.1,27.3,-000.1,0014.40,0006.86,0006.00
2023-07-16 06:36:00,SystemResetWarning,0834.0,5.00,000.00,029.5,028.4,000.0,037.8,031.1,27.0,-000.2,0013.88,0006.86,0005.97
2023-07-16 06:37:00,SystemResetWarning,0834.0,5.00,000.00,029.5,028.4,000.0,037.9,031.2,26.7,-000.3,0014.85,0006.84,0005.94
2023-07-16 06:38:00,SystemResetWarning,0834.0,4.99,000.00,029.5,027.7,000.0,037.8,031.1,26.4,-000.4,0015.51,0006.87,0005.93
2023-07-16 06:39:00,SystemResetWarning,0834.0,5.01,000.00,029.5,025.9,000.0,037.7,030.9,26.4,-000.3,0014.95,0006.88,0005.93
2023-07-16 06:40:00,SystemResetWarning,0834.0,5.00,000.00,029.4,025.2,000.0,037.6,030.6,26.3,0000.0,0015.61,0006.89,0005.94
2023-07-16 06:41:00,SystemResetWarning,0834.0,5.01,000.00,029.2,025.4,000.0,037.7,030.4,26.0,0000.0,0015.54,0006.92,0005.95
2023-07-16 06:42:00,SystemResetWarning,0833.9,5.02,000.00,029.2,025.8,000.0,037.7,030.5,26.2,0000.0,0015.45,0006.91,0005.97
2023-07-16 06:43:00,SystemResetWarning,0833.9,4.99,000.00,029.2,026.2,000.0,037.7,030.6,26.1,0000.0,0015.65,0006.93,0005.98
2023-07-16 06:44:00,SystemResetWarning,0834.0,5.00,000.00,029.2,026.6,000.0,037.7,030.6,25.8,0000.0,0015.63,0006.95,0006.00
2023-07-16 06:45:00,SystemResetWarning,0833.9,5.01,000.00,029.2,026.9,000.0,037.7,030.7,25.7,-000.1,0016.44,0006.95,0006.03
2023-07-16 06:46:00,SystemResetWarning,0834.0,4.99,000.00,029.2,027.2,000.0,037.7,030.7,25.8,-000.1,0017.23,0006.92,0006.03
2023-07-16 06:47:00,SystemResetWarning,0833.9,4.99,000.00,029.2,027.4,000.0,037.7,030.8,25.2,0000.0,0016.98,0006.92,0006.02
2023-07-16 06:48:00,SystemResetWarning,0833.9,5.00,000.00,029.2,027.6,000.0,037.7,030.8,26.1,0000.0,0016.00,0006.90,0006.02
2023-07-16 06:49:00,SystemResetWarning,0833.8,5.00,000.00,029.3,027.8,000.0,037.7,030.9,27.3,0000.0,0014.53,0006.85,0006.02
2023-07-16 06:50:00,SystemResetWarning,0833.8,5.00,000.00,029.3,027.9,000.0,037.8,030.9,26.4,0000.0,0014.62,0006.83,0006.01
2023-07-16 06:51:00,SystemResetWarning,0833.9,5.00,000.00,029.3,028.0,000.0,037.8,031.0,25.9,0000.0,0014.15,0006.82,0005.97
2023-07-16 06:52:00,SystemResetWarning,0833.9,4.99,000.00,029.4,028.1,000.0,037.8,031.0,25.7,0000.0,0013.66,0006.75,0005.93
2023-07-16 06:53:00,SystemResetWarning,0833.8,4.99,000.00,029.4,028.2,000.0,037.8,031.0,26.0,0000.0,0013.37,0006.71,0005.90
2023-07-16 06:54:00,SystemResetWarning,0833.8,5.02,000.00,029.4,028.3,000.0,037.8,031.1,26.4,0000.0,0013.25,0006.68,0005.87
2023-07-16 06:55:00,SystemResetWarning,0833.8,5.00,000.00,029.5,028.3,000.0,037.8,031.1,26.0,0000.0,0013.87,0006.64,0005.83
2023-07-16 06:56:00,SystemResetWarning,0833.8,4.98,000.00,029.5,028.3,000.0,037.9,031.1,25.5,0000.0,0012.97,0006.59,0005.79
2023-07-16 06:57:00,SystemResetWarning,0833.8,4.99,000.00,029.5,028.4,000.0,037.9,031.2,25.5,0000.0,0012.21,0006.54,0005.76
2023-07-16 06:58:00,SystemResetWarning,0833.8,5.01,000.00,029.5,028.4,000.0,037.9,031.2,25.3,0000.0,0012.04,0006.47,0005.73
2023-07-16 06:59:00,SystemResetWarning,0833.8,5.00,000.00,029.6,028.2,000.0,037.9,031.2,25.7,0000.0,0012.08,0006.48,0005.73
